Total_Precipitation_Accumulation
0.00 0.00 0.02 0.03 0.03 0.02 0.00 0.00 0.00 0.01 0.00 0.00 0.00 0.00 0.02 0.02 0.03 0.01 0.01 0.03 0.03 0.01 0.01 0.03 0.10 0.13 0.12 0.06 0.05 0.02 0.00 0.00 0.00 0.01 0.01 0.02 0.04 0.07 0.04 0.03 0.06 0.09 0.18
0.00 0.00 0.01 0.03 0.04 0.04 0.01 0.01 0.01 0.01 0.01 0.01 0.02 0.01 0.03 0.04 0.03 0.03 0.05 0.07 0.03 0.00 0.00 0.02 0.05 0.06 0.04 0.01 0.00 0.00 0.00 0.00 0.00 0.00 0.00 0.00 0.03 0.01 0.00 0.02 0.06 0.07 0.08
0.00 0.00 0.00 0.02 0.03 0.05 0.02 0.01 0.01 0.01 0.02 0.02 0.02 0.02 0.02 0.04 0.06 0.04 0.10 0.06 0.01 0.00 0.00 0.00 0.01 0.01 0.00 0.00 0.00 0.00 0.00 0.01 0.01 0.01 0.00 0.01 0.01 0.00 0.00 0.00 0.01 0.00 0.00
0.00 0.00 0.00 0.02 0.03 0.06 0.05 0.01 0.00 0.01 0.02 0.02 0.01 0.02 0.02 0.05 0.08 0.05 0.08 0.02 0.00 0.00 0.00 0.00 0.00 0.00 0.00 0.00 0.01 0.02 0.02 0.02 0.02 0.01 0.02 0.03 0.06 0.06 0.04 0.02 0.00 0.00 0.00
0.00 0.00 0.00 0.02 0.06 0.16 0.12 0.03 0.00 0.01 0.02 0.02 0.02 0.03 0.04 0.07 0.14 0.08 0.02 0.00 0.00 0.00 0.00 0.00 0.00 0.00 0.00 0.02 0.05 0.05 0.03 0.01 0.02 0.03 0.03 0.04 0.04 0.05 0.01 0.00 0.00 0.01 0.01
0.00 0.00 0.00 0.02 0.05 0.10 0.16 0.12 0.02 0.02 0.02 0.01 0.02 0.03 0.05 0.05 0.11 0.08 0.00 0.00 0.00 0.00 0.00 0.00 0.00 0.00 0.02 0.06 0.04 0.03 0.03 0.01 0.02 0.03 0.03 0.03 0.02 0.01 0.02 0.03 0.02 0.02 0.02
0.00 0.00 0.00 0.06 0.13 0.12 0.15 0.19 0.12 0.11 0.09 0.03 0.03 0.04 0.03 0.04 0.03 0.01 0.00 0.00 0.00 0.00 0.00 0.00 0.00 0.00 0.05 0.03 0.04 0.02 0.01 0.00 0.01 0.01 0.00 0.01 0.05 0.06 0.06 0.04 0.03 0.03 0.05
0.00 0.00 0.00 0.01 0.06 0.13 0.16 0.14 0.15 0.17 0.16 0.07 0.03 0.07 0.07 0.03 0.01 0.00 0.00 0.00 0.00 0.00 0.00 0.00 0.00 0.01 0.03 0.04 0.03 0.01 0.00 0.00 0.01 0.02 0.01 0.04 0.06 0.02 0.01 0.03 0.07 0.07 0.08
0.00 0.00 0.00 0.00 0.00 0.03 0.10 0.15 0.20 0.19 0.17 0.11 0.05 0.05 0.06 0.01 0.00 0.00 0.00 0.00 0.00 0.00 0.00 0.00 0.01 0.02 0.03 0.04 0.03 0.01 0.00 0.00 0.00 0.01 0.01 0.03 0.03 0.01 0.01 0.03 0.05 0.05 0.03
0.00 0.00 0.00 0.00 0.00 0.01 0.02 0.15 0.19 0.19 0.18 0.17 0.06 0.02 0.02 0.00 0.00 0.00 0.00 0.00 0.01 0.00 0.01 0.02 0.03 0.01 0.04 0.03 0.02 0.00 0.00 0.00 0.00 0.00 0.00 0.01 0.01 0.00 0.01 0.02 0.02 0.01 0.01
0.00 0.00 0.00 0.00 0.00 0.02 0.08 0.13 0.30 0.29 0.23 0.18 0.03 0.00 0.00 0.00 0.00 0.00 0.00 0.00 0.01 0.01 0.01 0.03 0.03 0.03 0.04 0.02 0.01 0.00 0.00 0.00 0.00 0.00 0.01 0.02 0.01 0.01 0.01 0.00 0.01 0.00 0.00
0.00 0.00 0.00 0.00 0.01 0.02 0.08 0.20 0.29 0.30 0.37 0.25 0.07 0.01 0.00 0.00 0.00 0.00 0.00 0.00 0.01 0.02 0.01 0.05 0.03 0.03 0.00 0.00 0.00 0.00 0.00 0.00 0.00 0.00 0.01 0.02 0.02 0.01 0.01 0.01 0.01 0.00 0.00
0.00 0.00 0.00 0.00 0.00 0.00 0.04 0.10 0.22 0.28 0.27 0.24 0.11 0.02 0.00 0.00 0.00 0.00 0.00 0.00 0.00 0.02 0.01 0.05 0.02 0.00 0.00 0.00 0.00 0.00 0.00 0.00 0.00 0.00 0.01 0.02 0.03 0.01 0.01 0.01 0.01 0.01 0.01
0.00 0.00 0.00 0.00 0.00 0.01 0.02 0.04 0.11 0.16 0.22 0.17 0.08 0.03 0.00 0.00 0.00 0.00 0.00 0.00 0.00 0.01 0.00 0.03 0.00 0.00 0.00 0.00 0.00 0.00 0.00 0.00 0.00 0.00 0.00 0.03 0.03 0.02 0.02 0.01 0.02 0.02 0.01
0.00 0.00 0.00 0.00 0.00 0.00 0.03 0.05 0.07 0.06 0.11 0.20 0.17 0.09 0.03 0.00 0.00 0.00 0.00 0.00 0.00 0.00 0.00 0.01 0.00 0.00 0.00 0.00 0.00 0.00 0.00 0.00 0.00 0.00 0.00 0.02 0.04 0.03 0.03 0.03 0.02 0.02 0.02
0.00 0.00 0.00 0.00 0.00 0.00 0.01 0.03 0.04 0.06 0.08 0.15 0.22 0.17 0.09 0.03 0.01 0.00 0.00 0.00 0.00 0.00 0.00 0.00 0.00 0.00 0.00 0.00 0.00 0.00 0.00 0.00 0.00 0.00 0.00 0.02 0.02 0.04 0.03 0.03 0.03 0.01 0.01
0.00 0.00 0.00 0.00 0.00 0.00 0.00 0.02 0.05 0.09 0.10 0.09 0.13 0.17 0.15 0.09 0.04 0.01 0.00 0.00 0.00 0.00 0.00 0.00 0.00 0.00 0.00 0.00 0.00 0.00 0.00 0.00 0.00 0.00 0.00 0.00 0.01 0.03 0.04 0.05 0.02 0.03 0.06
0.00 0.00 0.00 0.00 0.00 0.00 0.00 0.01 0.02 0.05 0.14 0.14 0.11 0.15 0.15 0.12 0.11 0.08 0.02 0.00 0.00 0.00 0.00 0.01 0.00 0.00 0.00 0.00 0.00 0.00 0.00 0.00 0.00 0.00 0.00 0.00 0.01 0.01 0.04 0.04 0.04 0.07 0.05
0.00 0.00 0.00 0.00 0.00 0.00 0.00 0.00 0.00 0.01 0.10 0.30 0.21 0.18 0.18 0.18 0.13 0.11 0.08 0.03 0.01 0.00 0.00 0.00 0.00 0.00 0.00 0.00 0.00 0.00 0.00 0.00 0.00 0.00 0.00 0.00 0.00 0.00 0.02 0.02 0.03 0.01 0.00
0.00 0.00 0.00 0.00 0.00 0.00 0.00 0.00 0.00 0.00 0.05 0.24 0.34 0.36 0.34 0.35 0.35 0.30 0.16 0.11 0.06 0.01 0.00 0.00 0.00 0.00 0.00 0.00 0.00 0.00 0.00 0.00 0.00 0.00 0.00 0.00 0.00 0.00 0.00 0.00 0.00 0.00 0.00
0.00 0.00 0.00 0.00 0.00 0.00 0.00 0.00 0.01 0.00 0.01 0.16 0.29 0.44 0.48 0.43 0.54 0.61 0.64 0.40 0.22 0.10 0.04 0.01 0.00 0.00 0.00 0.00 0.00 0.00 0.00 0.00 0.00 0.00 0.00 0.00 0.00 0.00 0.00 0.00 0.00 0.00 0.00
0.00 0.00 0.00 0.00 0.00 0.01 0.02 0.02 0.01 0.01 0.00 0.03 0.15 0.23 0.46 0.53 0.46 0.70 0.76 0.75 0.62 0.41 0.21 0.07 0.02 0.00 0.00 0.00 0.00 0.00 0.00 0.00 0.00 0.00 0.00 0.00 0.00 0.00 0.00 0.00 0.00 0.00 0.00
0.00 0.00 0.00 0.00 0.00 0.01 0.02 0.02 0.01 0.00 0.00 0.01 0.03 0.09 0.20 0.33 0.41 0.32 0.55 0.56 0.56 0.58 0.48 0.28 0.15 0.09 0.02 0.00 0.00 0.00 0.00 0.00 0.00 0.00 0.00 0.00 0.00 0.00 0.00 0.00 0.00 0.00 0.00
0.00 0.01 0.01 0.01 0.00 0.00 0.01 0.02 0.02 0.00 0.00 0.00 0.01 0.03 0.15 0.30 0.30 0.32 0.22 0.36 0.42 0.43 0.35 0.38 0.29 0.16 0.13 0.03 0.00 0.00 0.00 0.00 0.00 0.00 0.00 0.00 0.00 0.00 0.00 0.00 0.00 0.00 0.00
0.00 0.01 0.01 0.01 0.01 0.00 0.00 0.02 0.02 0.00 0.00 0.01 0.02 0.02 0.07 0.18 0.23 0.25 0.21 0.18 0.27 0.28 0.27 0.17 0.18 0.18 0.10 0.04 0.02 0.00 0.00 0.00 0.00 0.00 0.00 0.00 0.00 0.00 0.00 0.00 0.00 0.00 0.00
0.00 0.01 0.01 0.01 0.01 0.01 0.01 0.01 0.01 0.01 0.00 0.01 0.01 0.03 0.04 0.11 0.18 0.20 0.22 0.19 0.16 0.18 0.16 0.15 0.10 0.07 0.06 0.04 0.04 0.01 0.00 0.00 0.00 0.00 0.00 0.00 0.00 0.00 0.00 0.00 0.00 0.00 0.00